RH
74 81 78 74 79 81 81 83 85 88 90 92 91 85 84 80 82 82 75 83 85 78 77 74 76 84 82 89 91 85 85 75 74 71 61 61 54 56 70 72 64 60 68 67 56 47 41 38 35 34 34 34 32 30 27 24 22 20 18 18 18 17 17 17 17 17 16 15 15 15 15 17 19 22 27 29 29 28 24 21 21 22 23 23 23 26 27 27 26 27 27 27 28 29 29 27 26
72 72 70 76 83 84 85 89 91 93 91 87 88 87 83 77 80 82 77 79 75 72 72 68 73 82 83 86 89 85 83 69 61 61 52 55 54 48 57 63 57 57 64 61 52 47 42 37 32 28 28 28 27 25 23 21 19 18 18 18 18 17 17 17 17 17 15 15 14 14 15 16 19 23 27 30 30 28 26 24 23 23 23 23 23 23 24 24 24 25 25 26 27 28 31 31 30
70 70 72 79 84 87 88 93 95 95 93 85 84 85 79 71 75 83 83 77 69 69 66 63 71 78 81 83 87 84 73 62 54 51 48 48 50 44 46 52 51 53 57 53 48 46 42 35 27 23 23 23 22 20 18 17 17 18 19 19 20 19 18 18 17 16 15 14 13 14 15 17 19 23 27 30 31 30 29 28 28 28 28 29 28 28 29 28 28 29 30 30 29 28 29 30 32
70 77 79 78 82 89 87 88 90 92 92 85 81 79 71 66 71 77 79 75 67 67 65 65 71 75 79 80 80 74 61 59 54 45 44 42 42 43 43 47 49 48 45 43 42 42 37 29 21 17 18 18 17 17 16 16 18 20 22 22 21 20 18 17 16 15 14 13 13 14 15 17 19 23 28 31 33 33 33 33 33 33 33 32 32 32 33 33 34 35 35 35 34 33 31 31 31
68 77 83 80 82 86 85 86 86 89 88 82 81 81 74 70 73 71 75 76 67 66 70 70 72 78 80 74 68 61 56 59 54 43 42 41 38 39 41 45 47 43 37 35 33 32 30 21 14 13 15 15 15 15 15 17 20 24 24 24 22 19 17 15 15 14 13 12 12 14 16 18 20 24 28 31 33 34 35 35 34 34 33 32 31 30 30 31 33 35 38 39 38 36 35 35 36
69 75 80 82 89 88 84 85 85 86 84 83 83 84 79 78 81 75 77 77 70 70 71 71 73 79 77 69 63 54 53 56 53 43 40 43 39 37 37 39 39 36 33 30 25 22 22 17 11 12 14 14 16 16 17 21 24 27 26 25 21 17 14 13 13 12 11 11 12 15 17 19 22 26 30 32 32 33 33 32 33 33 33 32 33 33 32 33 35 39 43 44 41 38 38 39 41
71 72 73 80 91 89 82 81 82 81 83 89 87 86 83 84 87 76 74 69 66 70 67 70 73 74 72 67 61 52 51 50 48 42 42 43 37 34 33 33 32 30 29 25 20 16 15 13 11 12 14 16 17 18 21 25 28 28 27 25 21 15 12 11 11 11 10 11 13 15 18 21 25 30 33 33 31 31 32 34 35 36 37 36 36 37 37 37 39 42 45 46 44 41 41 42 42
74 74 73 79 83 80 79 80 81 81 85 92 88 85 84 84 86 75 70 67 63 64 64 68 70 72 71 65 58 53 49 45 43 42 41 36 30 30 30 31 31 27 23 21 19 14 12 12 12 14 16 17 18 21 25 28 29 29 29 26 20 14 9 9 9 9 10 12 14 17 19 23 29 36 37 34 32 34 36 38 39 41 41 41 40 39 38 39 40 44 47 48 47 44 42 42 42
76 80 75 76 79 76 82 87 87 89 88 90 85 79 81 85 84 74 71 68 61 61 64 68 69 71 71 66 57 53 51 47 46 44 40 31 24 25 27 29 29 26 20 17 15 12 12 13 14 16 17 19 21 24 27 29 30 31 31 27 19 12 9 8 9 9 10 13 15 17 20 26 35 39 35 33 34 36 38 38 39 41 43 44 43 41 39 39 40 43 45 45 45 44 43 44 45
76 83 78 78 82 75 79 87 87 90 91 91 88 78 77 81 75 69 70 66 62 65 67 70 73 69 68 66 58 56 56 52 47 40 36 29 24 23 26 27 25 24 21 14 11 12 13 15 17 19 19 20 23 26 28 29 30 33 33 28 20 14 11 10 10 11 12 14 17 19 22 31 38 36 33 34 36 37 36 34 33 34 37 39 38 37 36 35 36 37 37 34 34 35 37 41 44
76 82 82 81 80 75 77 82 83 89 95 92 92 87 77 75 72 67 71 70 66 66 66 70 74 69 66 64 59 59 58 54 43 29 28 30 28 25 26 27 23 22 21 14 11 13 15 17 20 20 21 21 24 27 28 29 30 33 34 29 23 18 16 15 16 16 16 18 19 22 27 33 34 31 32 34 35 34 31 27 24 24 25 26 26 26 26 26 26 26 25 23 21 22 24 27 31
74 76 83 85 82 81 84 88 87 88 93 91 90 93 83 77 80 73 74 78 73 66 66 71 73 69 66 63 62 64 64 61 46 28 26 31 31 26 25 27 28 27 22 15 12 15 17 18 21 21 22 23 25 28 27 28 30 32 34 32 29 26 24 23 23 23 23 24 25 28 31 32 29 28 29 30 29 27 24 20 17 16 14 14 14 15 15 14 14 14 13 12 11 11 12 14 15
72 72 79 83 81 76 81 88 86 85 90 92 88 92 89 83 82 77 74 79 82 73 68 71 70 69 68 65 66 68 69 64 48 30 25 27 27 26 25 26 30 30 24 16 13 15 18 19 21 22 23 24 25 26 26 27 29 29 33 35 34 33 32 31 30 30 31 31 31 31 30 27 25 25 25 24 22 19 16 14 13 13 12 10 9 9 9 8 8 8 7 7 7 7 7 8 9
69 72 75 78 77 71 77 80 76 85 91 83 77 85 88 84 79 76 76 78 86 81 70 71 68 69 71 71 73 73 70 62 45 28 24 26 27 27 25 30 31 27 25 19 16 15 18 19 19 22 23 23 24 24 25 26 26 28 33 36 36 36 36 35 33 33 33 32 29 26 24 23 22 21 18 16 14 12 10 9 10 11 10 8 8 8 8 9 9 8 8 7 6 7 7 7 8
67 71 73 74 73 72 83 80 73 81 87 79 75 81 80 80 77 74 80 79 80 79 71 68 65 66 70 72 75 76 71 60 44 27 27 29 27 26 25 33 32 27 29 21 17 17 17 19 18 22 23 22 22 22 24 24 23 26 32 35 35 36 35 33 31 30 27 23 21 19 20 20 17 14 10 9 8 7 7 7 8 7 8 8 8 9 9 11 14 15 14 12 9 7 7 8 8
66 70 71 73 71 78 87 83 82 79 81 85 82 82 78 75 73 69 78 76 70 70 65 61 60 63 65 66 69 75 72 59 46 30 28 31 26 24 24 29 28 29 30 19 17 18 16 17 18 22 22 20 21 22 23 22 21 23 29 33 33 33 31 28 24 23 21 18 18 18 18 16 12 8 6 6 5 6 6 6 6 6 7 7 8 8 11 13 17 21 20 19 16 10 7 8 8
65 66 67 72 73 81 88 84 89 82 79 89 87 86 84 79 74 66 69 68 62 58 57 56 55 58 61 64 65 71 72 57 45 33 28 28 24 22 24 25 22 25 25 17 17 17 15 17 19 21 20 19 20 22 23 20 18 21 25 28 29 27 23 20 19 20 19 18 18 16 14 10 7 5 4 5 5 5 5 6 6 7 7 7 7 9 12 15 17 22 20 18 18 12 9 10 9
60 63 58 64 71 77 85 85 86 83 84 92 88 87 86 86 82 67 63 68 68 59 53 50 47 52 57 63 65 66 69 58 43 32 26 26 23 19 20 18 15 20 21 18 18 15 14 17 20 20 18 18 20 22 22 18 16 18 20 22 22 18 15 14 16 18 17 17 14 10 8 5 5 4 4 5 5 5 5 6 6 7 8 8 8 10 14 14 15 22 18 12 14 11 10 10 9
55 62 57 59 70 76 83 89 89 89 94 92 85 85 85 85 80 69 66 72 73 65 56 49 46 54 60 60 60 60 62 60 45 31 26 26 25 19 17 13 10 16 18 18 18 13 13 17 20 19 16 17 20 22 20 16 14 14 15 16 14 10 9 11 12 12 11 9 7 5 5 4 4 3 4 4 5 6 7 9 12 13 13 13 15 18 19 14 12 16 15 14 14 9 8 9 8
51 59 59 60 68 74 83 92 94 93 96 90 80 80 82 79 74 70 68 67 70 71 66 56 47 50 58 56 52 50 52 59 49 33 28 28 27 21 17 12 9 13 14 15 16 13 13 18 20 16 13 15 18 19 16 13 12 11 11 10 8 6 7 8 10 14 14 10 9 10 8 6 6 6 9 11 11 11 12 17 23 23 18 15 17 20 19 13 9 13 18 19 16 9 7 7 7
48 53 56 58 63 70 77 86 93 94 93 86 81 81 83 82 78 69 66 70 75 79 73 64 54 48 51 51 48 45 44 55 55 39 32 30 29 24 18 14 9 11 13 12 14 13 12 18 19 13 10 9 13 15 12 10 9 8 8 7 5 5 7 7 10 18 25 23 18 13 9 10 12 15 19 21 23 24 24 24 26 26 21 19 21 23 23 16 10 14 21 20 15 15 12 7 6
43 48 51 54 61 70 76 85 93 93 89 86 86 85 84 88 84 68 64 71 72 72 69 63 60 56 51 46 44 45 44 52 56 46 38 34 30 26 21 17 11 10 13 10 11 14 13 18 18 11 7 5 6 10 10 8 7 6 6 5 4 5 7 8 9 12 19 21 19 18 19 22 24 28 28 27 32 35 32 25 23 25 25 27 27 29 35 28 16 17 22 17 14 17 14 7 6
39 42 48 54 59 67 78 89 94 82 75 80 86 84 78 82 83 72 68 71 68 68 69 64 59 58 54 48 43 44 45 49 55 51 44 39 32 27 24 21 15 10 13 10 9 16 16 17 17 9 6 4 3 7 9 7 5 5 5 5 4 5 6 7 8 9 10 13 20 27 28 26 31 35 30 28 33 32 27 22 21 24 26 24 24 34 43 36 23 23 23 17 14 13 11 8 6
38 38 43 50 55 67 76 89 98 79 64 71 77 78 74 72 79 80 75 75 76 72 69 64 57 52 49 49 46 44 46 47 51 52 47 42 35 30 26 24 20 12 13 14 11 17 18 18 17 9 5 5 3 5 7 6 4 5 5 5 5 5 7 7 8 8 7 9 13 19 20 19 27 37 32 27 27 26 23 23 22 23 24 21 28 41 42 34 27 31 33 27 19 10 8 8 5
37 38 38 44 54 67 75 84 94 78 64 70 71 76 78 73 80 84 76 75 81 78 69 59 50 48 45 45 44 40 45 47 47 49 47 45 38 32 28 26 24 14 13 16 15 17 19 20 17 8 6 5 3 4 5 5 4 5 5 5 5 5 7 9 8 6 6 6 6 9 13 13 24 37 34 25 24 25 23 23 23 23 23 23 31 37 34 30 27 34 39 34 27 18 16 14 6
36 40 37 39 49 59 68 76 80 72 66 70 72 77 81 79 83 82 76 75 80 81 77 63 47 44 42 40 40 36 37 41 44 46 45 44 40 33 29 28 25 16 11 15 17 18 19 22 18 9 7 6 4 4 5 5 5 5 6 5 6 6 7 8 7 6 5 5 5 6 9 13 23 29 23 18 21 24 24 23 24 24 23 25 30 33 34 33 29 31 28 27 31 31 32 22 9
32 38 37 35 40 48 59 66 68 70 67 67 71 75 79 82 84 83 81 79 80 80 77 70 54 44 41 36 36 34 31 34 38 42 43 44 42 35 31 29 27 18 12 14 17 19 19 21 19 10 7 7 4 4 4 5 6 6 7 5 6 6 7 8 6 5 4 5 5 5 8 14 20 19 14 14 17 19 22 23 22 22 22 26 30 31 33 35 40 39 26 31 42 42 40 25 12
23 29 34 30 30 35 46 55 59 63 65 66 70 73 79 85 86 88 87 77 76 80 73 71 65 52 44 37 35 33 30 30 31 36 43 44 42 37 32 30 30 21 13 13 14 17 19 20 19 10 7 7 4 4 5 5 6 7 7 6 6 6 6 6 5 5 4 5 5 5 7 11 13 13 13 16 18 18 19 21 22 23 26 30 31 31 32 34 43 45 32 39 48 44 40 26 18
16 18 23 24 29 32 34 41 47 53 60 65 69 73 77 82 85 87 87 77 74 78 69 68 71 59 45 40 43 43 37 30 22 23 33 39 40 37 33 32 32 25 17 13 11 15 17 17 19 11 6 7 4 4 5 6 7 8 8 7 6 6 5 5 5 5 5 5 5 5 6 8 8 10 13 16 19 18 17 22 26 27 30 34 34 34 36 35 37 43 36 37 40 32 29 26 26
14 14 13 16 26 32 32 32 36 42 51 62 68 72 75 79 84 86 88 84 78 75 69 69 71 60 44 36 42 50 49 40 26 16 17 26 34 36 34 34 34 28 20 14 11 14 15 15 17 12 6 6 6 4 5 6 8 9 10 9 7 5 4 4 4 4 4 5 5 5 5 6 8 10 13 17 22 23 21 24 26 29 32 34 35 35 38 38 37 43 41 38 39 33 29 30 33
11 12 10 10 12 20 30 34 35 35 42 58 66 69 75 79 83 87 89 86 80 76 72 73 74 69 58 46 44 49 48 41 30 19 12 12 22 31 32 33 37 32 23 15 12 13 14 14 16 12 6 6 7 6 6 7 10 11 10 8 6 4 3 3 3 4 4 5 5 5 6 7 9 9 12 16 23 27 24 24 26 30 34 34 36 33 32 39 41 44 45 44 44 41 38 36 36
5 6 7 8 7 14 28 35 37 38 42 56 65 68 77 83 85 87 89 86 82 79 73 72 75 76 72 63 60 55 42 32 27 23 17 11 13 24 30 31 37 35 25 17 12 13 13 13 15 11 6 6 7 8 8 9 10 10 9 6 4 3 4 4 3 4 4 5 5 6 6 7 8 9 10 14 21 26 26 27 30 31 35 37 36 30 27 34 42 45 44 44 46 46 45 44 44
3 4 5 6 7 13 21 27 33 43 47 53 64 72 76 85 89 87 87 89 84 76 71 72 74 75 72 65 66 65 47 30 24 23 20 15 11 17 25 30 35 35 25 17 12 13 13 13 14 9 5 5 7 9 9 9 9 8 6 4 4 4 5 5 5 5 4 5 5 6 6 7 7 9 10 13 17 21 24 27 30 33 36 36 30 25 25 31 41 45 42 42 45 46 47 49 51
2 2 4 5 7 10 15 22 29 40 48 51 55 63 73 84 92 91 87 88 86 76 72 77 75 76 76 66 67 70 55 34 25 22 19 16 11 11 19 25 33 35 25 15 12 12 12 12 13 8 5 5 6 8 8 7 7 5 4 4 4 5 6 6 6 6 5 5 6 6 6 6 8 9 10 11 14 19 24 26 29 35 37 33 25 23 28 34 40 43 40 39 40 42 46 50 50
2 1 3 5 7 9 12 20 29 32 41 55 50 46 70 87 90 94 88 82 83 78 80 84 76 74 78 70 66 69 58 42 32 25 19 17 14 11 14 19 27 32 23 14 11 12 12 12 11 7 4 5 5 6 6 6 6 5 5 5 5 6 6 7 7 7 6 5 6 6 6 7 8 9 10 11 15 20 25 27 29 35 38 32 22 22 28 32 34 34 32 31 31 34 39 46 50
1 2 3 4 7 8 9 17 37 46 41 55 58 49 70 90 90 91 87 82 83 80 83 87 77 71 73 70 67 66 60 49 35 26 21 17 15 13 13 16 20 25 20 12 11 12 12 12 10 7 4 4 4 5 5 5 6 6 7 7 6 6 6 7 7 7 7 6 6 6 6 7 8 9 10 11 14 17 22 26 30 37 37 28 19 22 24 25 26 25 22 21 21 23 27 34 42
2 2 2 3 5 8 11 15 45 76 64 57 69 67 72 85 90 90 86 85 85 81 78 80 79 74 69 69 69 67 62 52 36 26 23 19 15 13 12 13 16 20 18 11 10 12 11 10 9 7 4 4 4 4 5 5 6 7 7 7 6 6 6 6 7 7 7 6 6 6 6 8 8 9 10 11 13 15 19 24 28 35 35 23 15 19 21 19 20 18 16 16 14 15 16 19 23
2 2 2 3 4 6 12 15 44 89 88 70 76 80 77 82 90 92 90 90 85 82 79 77 81 79 72 69 65 64 61 53 39 27 24 21 17 14 12 11 13 19 19 11 10 11 10 9 7 6 5 4 4 4 5 5 7 7 6 7 6 6 6 6 7 7 7 6 6 6 7 8 8 9 9 10 13 14 17 22 28 32 31 20 12 16 17 15 15 15 14 14 13 13 13 13 14
2 2 2 1 4 5 10 22 49 83 87 76 81 85 81 81 89 93 94 94 88 87 87 83 82 74 68 66 59 60 62 53 41 31 25 22 18 17 14 12 12 17 17 10 9 11 10 8 5 5 5 4 4 4 5 5 6 6 6 7 7 6 5 6 6 7 7 6 6 6 7 8 8 8 9 10 11 12 14 19 25 27 24 17 11 13 15 13 12 13 13 13 14 13 13 14 14
1 2 3 1 4 3 10 31 51 73 84 80 82 85 80 78 88 96 96 96 90 87 88 85 82 72 64 63 60 60 61 52 44 35 28 24 21 19 17 16 14 14 13 9 9 11 10 7 5 4 4 4 4 3 4 4 4 5 6 6 7 7 5 5 6 7 7 6 6 6 7 7 8 7 8 8 9 10 11 14 18 21 22 16 10 10 12 12 12 12 12 13 14 14 14 14 14
1 3 2 1 4 -0 15 45 50 62 81 80 78 82 81 82 89 93 95 98 89 81 86 83 81 80 70 63 60 58 57 51 45 39 30 26 24 19 16 17 15 11 9 9 9 10 10 8 5 4 4 3 3 3 3 3 3 4 5 5 7 7 7 6 6 6 6 6 5 6 7 7 7 7 7 7 8 9 10 11 14 18 23 20 11 8 10 10 11 13 13 13 14 14 13 13 13
1 3 2 1 6 0 19 57 59 58 72 74 74 78 79 80 85 92 95 97 86 76 83 79 75 78 69 61 60 56 53 48 46 41 32 29 27 20 15 15 16 12 8 8 9 11 9 7 5 3 3 3 2 3 2 2 3 3 4 5 6 7 7 6 6 5 5 6 5 6 7 7 7 7 6 7 8 8 9 9 10 14 20 21 14 8 8 9 11 12 13 14 14 14 13 13 13
1 3 3 0 5 2 15 52 65 62 67 69 68 69 70 66 68 79 85 90 91 87 86 70 54 54 50 54 62 61 58 51 46 44 36 32 29 22 17 17 20 19 10 8 9 10 9 7 5 4 2 3 2 2 2 2 2 3 3 4 6 6 6 6 5 5 5 5 6 6 6 6 6 7 7 7 7 8 8 9 9 9 13 17 15 10 8 8 10 12 12 14 14 14 14 15 14
2 1 4 1 3 2 8 41 63 60 61 67 65 63 66 63 61 66 70 79 87 85 80 55 31 30 34 46 63 71 71 59 50 47 39 34 30 23 18 17 21 20 12 9 9 10 11 8 6 5 3 3 3 2 2 2 2 2 3 4 5 6 6 6 5 6 6 5 5 6 6 6 6 6 7 7 7 8 8 10 10 9 10 12 12 12 10 8 9 12 12 13 13 15 16 17 18
2 2 3 2 4 1 4 31 55 57 58 62 63 66 69 66 63 67 71 76 72 64 66 53 30 25 28 38 54 66 74 67 54 50 42 34 30 26 21 17 18 16 11 9 10 10 11 9 7 5 4 3 3 3 2 3 3 3 3 4 5 6 5 5 6 6 6 5 5 5 6 6 6 6 7 7 7 7 8 10 11 12 11 10 10 11 11 9 8 10 12 12 13 15 17 18 20
3 3 3 3 4 3 3 19 39 54 59 58 59 65 68 60 52 62 71 71 65 56 61 63 47 34 29 31 43 54 66 70 60 52 45 36 29 25 22 19 15 13 10 10 9 9 11 10 7 6 5 4 3 3 3 3 3 3 3 4 4 5 5 5 5 5 5 5 4 5 5 5 6 6 7 7 7 8 8 9 12 14 13 11 11 10 10 10 9 8 10 12 14 16 17 19 20
4 3 3 4 4 3 3 8 24 42 49 50 55 60 66 59 44 49 57 57 61 57 56 64 57 44 33 27 36 45 52 66 66 55 49 41 29 22 22 23 19 12 9 9 8 8 10 10 9 6 5 5 4 4 4 4 4 3 3 3 3 4 4 4 4 4 4 4 4 4 5 5 5 6 7 7 8 8 9 10 12 15 15 14 13 11 10 10 10 9 9 11 13 15 18 19 21
5 3 3 5 7 7 3 4 15 24 24 29 43 57 66 58 39 40 43 41 50 49 47 58 53 42 35 24 31 46 52 64 67 57 51 44 31 23 24 26 22 13 8 8 8 7 8 10 10 8 5 5 4 4 4 4 4 4 3 3 3 3 4 4 4 4 4 4 4 4 5 5 5 6 6 7 8 9 10 11 12 13 15 16 16 15 13 10 10 10 9 10 12 15 17 19 21
5 5 4 6 11 11 5 4 7 9 9 13 26 44 50 42 39 47 46 41 51 54 51 59 55 45 40 26 30 53 61 62 64 57 52 47 36 29 28 26 19 11 9 8 7 8 8 9 10 10 8 7 7 5 5 4 4 3 3 3 3 3 3 4 4 3 3 4 4 4 5 5 5 6 6 7 9 10 10 12 12 12 14 16 17 18 17 14 12 11 10 10 10 12 15 17 20
7 5 4 4 7 7 3 3 3 2 4 7 17 28 25 21 24 29 35 40 54 68 67 65 66 59 46 29 37 65 70 64 66 60 51 48 43 34 30 27 17 10 10 8 7 7 8 9 10 10 11 11 10 8 5 4 4 3 3 3 2 3 3 3 3 3 3 4 4 5 5 6 7 7 7 8 10 11 11 12 12 12 13 15 16 18 19 18 16 14 12 11 10 11 13 14 18
9 7 5 4 3 3 2 2 3 3 2 2 10 16 8 7 9 9 25 37 42 63 73 72 75 68 47 29 37 66 75 67 64 57 47 48 47 36 29 27 21 17 15 9 6 6 7 9 10 11 12 11 10 9 6 5 4 3 2 2 2 2 3 3 3 3 3 3 5 6 7 8 9 9 9 10 11 12 13 13 13 14 14 15 16 17 19 19 19 19 17 14 12 11 11 12 15
11 9 7 6 4 3 3 3 3 2 3 2 3 5 1 2 5 5 17 25 27 46 66 76 75 58 40 26 22 39 54 52 49 47 45 48 47 39 33 31 27 24 19 10 5 6 6 7 9 9 10 8 8 7 7 6 4 3 2 1 2 2 2 2 2 2 2 3 5 7 8 10 10 10 10 11 12 13 15 15 15 16 18 18 18 18 18 19 21 23 24 22 18 14 11 11 12
12 10 7 6 5 4 3 3 4 3 4 4 1 3 2 3 4 2 5 10 17 26 35 57 68 53 40 30 19 28 39 34 35 42 46 49 50 44 38 34 26 19 14 7 5 5 4 5 6 6 6 5 5 5 4 4 3 2 2 1 2 2 2 2 2 2 2 3 5 7 9 10 10 10 10 10 11 12 14 15 16 17 18 19 20 20 20 20 21 24 27 28 27 22 17 13 11
13 9 8 10 7 6 6 5 5 6 5 4 3 3 2 2 2 3 2 1 6 9 6 27 58 66 61 44 25 28 34 26 27 41 50 54 53 45 38 32 24 17 12 6 5 5 3 4 4 4 4 3 3 3 3 3 2 2 2 2 2 2 2 2 2 2 4 5 6 7 8 9 9 10 9 9 9 10 11 13 13 14 14 15 17 18 19 21 22 25 27 29 31 31 28 22 16
14 12 14 15 11 6 6 7 6 5 5 4 2 3 4 4 2 5 9 3 1 4 2 12 42 66 70 52 27 22 29 26 21 32 49 56 53 43 35 33 29 24 17 7 4 5 3 3 3 3 3 3 3 2 1 2 1 1 2 2 2 2 2 3 2 3 5 5 6 6 7 7 8 9 10 12 13 14 16 17 18 17 17 18 18 17 18 19 21 24 27 29 31 33 35 32 27
19 26 26 19 16 12 5 5 6 4 6 9 9 12 12 7 3 7 16 16 9 5 4 10 30 51 54 41 21 13 23 26 17 26 46 54 53 47 39 38 35 30 22 12 6 4 3 3 3 3 3 2 2 2 1 2 1 2 2 2 2 3 3 3 3 4 4 4 5 5 5 6 7 10 13 17 19 21 23 25 26 26 26 26 26 25 23 22 22 23 26 29 32 34 35 36 35
20 32 33 20 19 20 12 7 6 4 11 23 30 29 20 14 16 19 21 24 20 11 10 11 17 28 28 21 13 9 20 28 24 36 53 53 53 54 48 44 37 29 22 15 7 3 3 3 2 2 3 3 3 2 1 2 2 2 2 2 3 3 3 3 3 3 3 3 4 4 5 7 9 13 17 21 26 29 31 32 31 30 30 30 30 30 29 28 28 28 28 30 33 34 35 36 37
22 25 26 17 15 20 15 10 8 4 9 28 40 35 26 26 33 36 32 31 23 12 13 15 12 11 9 9 9 8 24 41 42 51 62 58 58 60 53 44 35 24 17 12 9 6 3 2 2 2 3 3 3 3 2 3 3 3 3 3 3 2 3 3 2 3 3 3 4 5 9 13 16 21 26 32 37 39 39 36 34 33 31 31 31 30 31 31 31 31 32 34 36 36 36 36 36
Wind_Speed
8 7 6 5 5 5 5 4 5 4 5 5 6 7 6 6 8 6 5 5 5 3 4 6 6 5 7 8 8 10 9 7 9 8 9 9 7 10 12 10 9 9 11 11 11 11 12 12 12 11 11 10 10 10 10 9 8 7 7 7 7 7 7 7 8 8 8 8 8 8 8 8 8 8 7 7 8 8 8 8 8 8 8 8 8 8 7 6 6 5 5 5 5 5 5 4 4
8 7 6 6 7 6 4 5 6 6 7 7 8 8 6 7 7 5 4 5 6 4 5 7 7 6 8 9 8 9 9 7 9 9 9 10 7 8 11 9 9 10 12 12 10 11 11 11 11 10 10 10 9 9 9 9 8 7 7 7 6 6 7 7 8 8 8 9 9 9 9 9 8 8 8 8 9 9 9 8 8 8 8 8 8 8 8 7 7 7 7 6 6 6 5 4 4
8 8 7 7 8 8 7 7 8 8 8 8 8 8 7 8 8 7 6 7 6 4 5 7 7 8 9 9 9 8 9 8 8 10 10 10 8 7 9 9 9 11 12 11 11 11 10 9 9 8 9 9 9 9 8 8 7 7 7 6 6 6 7 8 8 9 9 9 10 10 10 10 9 9 9 9 10 10 10 9 9 9 8 8 9 9 8 8 8 8 8 8 7 6 5 4 3
8 7 7 6 6 7 8 8 8 9 9 8 8 8 7 8 9 8 7 7 5 4 5 7 7 7 8 9 10 9 9 7 4 8 11 8 8 8 7 8 9 10 11 11 10 10 9 8 7 8 8 8 8 8 7 7 7 7 7 6 6 6 7 8 9 9 10 10 10 10 10 10 10 10 10 11 11 10 10 10 10 9 9 9 9 9 9 9 9 9 9 8 8 7 5 4 3
8 7 7 6 6 7 9 9 9 9 8 7 8 9 7 5 8 8 7 8 5 4 6 7 7 7 7 9 11 11 10 8 3 4 11 7 5 9 8 8 9 9 10 10 10 9 8 8 7 8 8 8 7 7 7 7 7 7 7 6 6 7 8 9 9 10 10 11 11 11 11 11 11 11 11 11 11 11 10 10 10 9 9 9 10 10 10 10 10 10 9 9 8 7 6 5 4
7 7 7 6 6 7 9 9 9 9 8 7 9 10 6 4 8 8 7 8 6 5 6 6 7 8 8 8 8 9 9 9 6 2 9 9 4 8 9 8 9 9 9 9 8 8 8 7 7 8 8 7 7 7 7 7 7 8 7 7 7 7 8 9 10 10 11 11 11 11 11 11 11 11 11 11 11 10 10 10 10 9 10 10 10 10 10 11 10 10 10 10 9 8 7 7 6
6 6 6 7 7 6 8 8 9 9 7 7 8 8 6 5 9 9 7 7 6 5 6 6 7 8 9 9 7 7 7 7 8 4 7 9 6 8 9 9 9 9 9 8 7 7 7 7 7 8 7 7 7 7 7 7 8 8 8 7 7 8 9 10 11 11 12 12 12 12 12 12 11 11 11 10 10 10 10 10 10 10 10 10 10 10 10 10 10 10 10 11 11 10 10 9 8
5 6 6 7 6 5 7 6 7 7 6 8 8 7 6 7 10 8 6 7 6 5 4 6 8 9 8 7 7 6 5 5 7 6 6 9 7 8 9 9 10 9 8 8 7 7 7 7 7 8 7 8 7 7 7 7 8 8 8 7 8 9 10 11 11 12 13 13 13 13 13 12 12 11 11 10 10 10 10 10 10 11 11 11 11 11 11 10 10 10 11 11 12 12 11 10 10
5 5 5 5 5 5 6 5 5 6 6 6 8 6 6 8 9 6 6 7 6 5 4 5 5 7 7 5 5 5 4 4 5 6 7 8 8 8 8 9 9 9 8 7 7 6 7 7 7 7 8 8 8 8 8 8 8 8 8 8 9 11 11 12 12 13 13 14 14 14 13 13 12 11 11 11 11 11 11 11 11 11 12 12 12 12 12 11 11 11 12 12 12 12 12 11 11
6 5 4 4 4 5 4 3 4 7 5 4 6 5 6 8 7 6 7 7 6 5 5 5 5 5 7 5 4 4 3 4 5 7 7 8 9 8 8 7 8 9 8 7 7 7 7 7 6 7 8 8 8 9 8 8 9 9 9 10 11 12 12 12 13 13 14 14 15 14 14 13 12 11 12 13 13 13 12 12 12 13 14 14 14 14 14 14 13 13 13 13 14 14 13 13 11
7 7 5 5 4 4 4 4 5 7 5 4 5 5 7 7 6 8 8 7 5 5 4 5 5 4 6 5 3 2 2 3 5 7 7 8 8 8 7 7 7 7 8 7 7 7 7 7 6 6 8 9 9 9 9 9 9 10 10 11 12 13 13 13 13 14 14 15 15 14 14 13 13 13 14 14 14 14 13 13 14 15 15 16 16 16 16 15 15 15 14 14 15 15 15 14 13
7 6 5 5 3 3 4 5 5 6 5 4 6 7 8 7 9 10 8 6 5 5 4 4 5 4 5 4 2 2 1 2 4 6 7 7 7 7 7 7 7 6 7 7 7 7 6 6 6 6 8 9 10 9 9 10 10 10 11 12 13 13 13 13 14 14 14 15 15 15 14 14 14 15 15 15 14 14 14 15 16 16 16 17 17 17 17 16 16 16 15 15 15 15 15 15 14
9 8 5 4 3 4 5 4 3 5 6 5 7 8 7 7 8 9 6 6 6 5 4 5 6 4 4 3 2 1 1 2 3 5 6 6 6 6 7 7 7 7 7 7 7 7 6 6 6 6 8 9 10 9 9 10 11 11 12 13 14 14 14 14 14 14 15 15 15 15 15 16 16 16 16 15 15 15 15 16 16 16 16 16 17 17 16 16 16 16 15 14 14 15 15 14 14
9 8 6 5 4 3 2 1 2 4 7 6 8 7 5 6 7 7 5 5 5 4 3 5 5 4 4 3 2 1 1 2 4 5 5 5 5 6 6 7 8 7 7 7 7 7 7 6 6 7 8 10 10 10 10 10 11 12 13 14 14 14 14 14 14 14 15 15 16 16 17 17 17 17 16 16 17 16 16 16 16 15 15 16 17 16 16 15 16 15 15 14 14 14 14 13 13
9 8 6 6 4 2 2 2 2 3 5 4 7 5 5 6 5 4 3 5 4 3 3 4 3 3 3 3 3 1 2 2 4 4 4 4 4 5 5 7 8 8 8 7 7 7 7 6 6 7 9 10 10 11 11 11 11 12 13 14 14 14 14 14 14 15 16 16 17 17 18 18 18 17 18 18 17 17 16 16 15 14 15 16 16 16 15 15 15 15 15 14 14 14 14 13 12
9 8 6 5 4 4 7 5 4 2 2 3 4 3 4 4 3 2 1 3 2 2 2 1 1 3 3 2 2 2 2 2 3 4 3 3 3 4 4 6 8 8 8 8 8 7 7 7 7 8 9 10 11 11 11 11 11 12 14 15 14 15 15 15 15 16 17 17 18 18 18 19 19 18 18 18 17 16 16 15 15 15 15 15 15 15 15 15 15 15 15 15 14 14 14 13 13
10 9 7 6 5 6 8 3 2 1 2 2 2 2 2 2 1 1 1 0 2 1 0 1 2 2 3 2 2 2 3 3 3 3 2 2 2 3 3 5 7 8 8 8 8 7 7 7 7 9 9 10 11 11 11 11 11 12 14 15 15 15 16 16 17 18 18 19 19 19 19 19 19 19 18 17 16 15 15 15 15 15 15 15 15 15 15 14 15 15 15 14 14 14 14 14 13
10 9 8 6 6 6 6 3 2 2 2 3 5 2 1 1 1 2 1 0 1 1 1 1 1 2 3 3 2 2 3 3 4 3 2 2 1 2 3 4 6 8 9 8 8 7 7 8 8 9 10 11 11 11 11 11 11 12 14 16 16 16 17 18 18 19 19 19 19 19 19 18 18 18 17 16 15 15 15 15 16 16 15 15 14 14 14 14 14 14 14 14 14 14 14 14 14
11 10 9 7 6 6 6 5 3 2 3 6 6 3 1 1 0 2 2 1 1 1 1 1 1 2 2 3 3 2 3 4 6 5 4 3 1 1 2 3 5 7 8 8 8 7 8 8 9 10 10 11 11 11 11 11 11 13 15 16 17 18 18 19 20 20 20 20 19 18 18 17 17 17 16 16 15 15 15 15 15 15 14 14 13 13 14 14 13 13 13 13 13 13 12 13 14
12 11 10 8 8 7 6 6 3 2 3 3 4 4 3 3 2 1 1 1 1 1 1 1 1 2 3 3 4 4 4 5 7 7 6 4 3 2 2 3 4 6 7 7 7 7 8 9 9 10 10 11 11 11 11 11 12 13 15 17 18 19 19 20 20 19 19 19 18 17 15 15 16 16 16 15 15 15 15 15 14 14 14 13 13 13 13 13 13 12 12 12 12 12 11 12 13
13 12 11 10 9 7 6 7 7 6 4 3 3 4 4 5 4 1 1 1 1 0 2 1 1 2 3 4 4 4 5 5 7 9 8 6 4 3 2 2 3 6 7 7 6 7 8 9 10 10 10 11 11 11 11 12 13 14 16 18 19 18 18 18 18 17 16 16 16 15 14 14 14 15 15 14 14 14 14 14 13 13 13 12 12 12 12 12 12 12 11 12 12 12 11 11 12
14 13 13 11 9 8 7 7 10 9 4 5 4 4 6 7 7 4 2 1 1 2 1 0 1 0 1 3 4 5 5 6 8 9 9 7 5 4 3 3 3 5 7 7 7 6 7 9 10 10 11 11 11 11 12 12 14 15 16 18 18 17 17 17 16 15 15 15 15 14 13 12 13 13 14 13 13 13 13 13 12 12 12 11 11 11 11 11 12 11 11 11 11 12 11 11 11
16 15 13 12 11 11 9 7 9 8 4 5 6 6 7 8 8 6 5 2 2 2 1 1 1 0 1 2 4 5 5 6 8 9 9 8 6 5 5 4 3 5 7 6 6 7 7 9 10 10 11 11 11 12 13 13 14 15 16 17 17 16 16 15 14 14 14 14 13 12 11 11 12 12 12 12 12 12 12 12 12 11 11 10 10 10 10 10 10 11 10 9 10 11 11 11 10
17 16 14 13 12 12 10 8 9 8 4 6 8 8 8 9 7 7 6 2 1 2 2 2 2 1 2 2 3 4 5 7 8 8 9 8 7 6 5 4 3 4 6 6 6 6 7 9 9 10 11 11 12 13 13 14 15 15 16 16 16 15 14 13 13 12 13 13 12 11 11 12 11 11 11 12 12 11 11 11 12 11 10 10 10 10 9 8 9 10 8 9 10 10 11 10 10
16 16 15 13 12 13 13 12 12 12 9 8 10 9 9 8 7 8 8 3 1 3 4 5 4 2 2 3 4 4 5 7 8 9 9 9 7 6 6 5 4 4 6 7 6 6 8 9 9 10 11 11 12 13 14 15 15 15 15 15 15 14 13 12 11 11 11 11 11 11 11 12 11 10 11 11 11 11 10 11 12 11 10 10 10 10 8 8 10 9 8 9 9 10 11 10 9
15 16 16 14 14 14 14 14 15 14 11 10 11 11 9 7 7 9 10 5 3 3 5 6 4 3 4 3 4 4 4 7 9 10 10 9 8 8 7 6 5 4 5 6 6 6 8 9 9 10 11 11 13 14 15 15 15 15 15 15 14 13 13 12 11 10 10 11 10 10 11 11 10 10 11 11 11 10 10 11 11 10 10 9 10 9 9 9 9 9 9 9 10 11 11 10 9
17 18 18 16 16 16 16 16 15 14 12 12 12 11 9 9 9 10 11 7 5 4 5 5 4 4 4 3 3 4 4 6 8 10 10 9 9 9 9 7 5 4 5 6 6 6 8 9 10 10 11 12 13 15 15 15 15 15 15 14 14 13 12 11 10 9 10 10 9 10 11 10 10 10 11 11 11 10 10 11 10 10 10 9 10 9 9 10 9 9 10 10 11 12 11 10 10
21 20 20 19 17 18 19 18 15 14 13 13 13 12 12 11 7 8 12 9 6 5 5 4 4 3 3 3 3 4 4 5 7 9 10 11 11 11 10 8 6 6 5 6 7 6 7 10 10 10 11 12 14 15 16 16 15 15 15 14 13 12 11 10 9 8 9 8 8 9 10 10 10 11 11 11 10 10 11 11 10 10 10 10 10 10 9 9 9 9 11 11 10 10 10 10 10
22 22 23 21 18 16 17 18 17 16 15 15 15 14 14 10 6 9 15 12 8 6 5 5 5 4 4 4 3 4 5 5 8 10 12 13 13 13 12 10 8 6 6 6 7 6 7 10 11 11 11 13 14 15 16 16 16 15 14 13 13 12 11 10 8 8 8 8 7 8 9 10 10 10 10 10 10 10 10 10 9 9 10 10 11 10 9 9 10 10 11 10 9 9 9 10 9
23 23 24 23 19 15 14 16 18 18 16 15 15 14 13 10 9 13 15 13 10 6 5 6 5 6 6 5 4 5 5 6 8 10 12 13 14 14 13 12 10 7 7 7 8 7 7 10 12 12 12 13 14 15 16 16 16 15 14 12 12 11 11 10 8 7 7 7 7 8 9 10 10 10 10 9 9 9 10 10 9 10 10 11 10 10 9 10 10 10 9 9 9 8 9 8 7
25 26 25 23 20 16 15 15 16 17 16 15 16 14 12 12 12 13 15 16 12 7 6 5 4 6 6 7 6 5 6 6 7 8 10 13 14 15 14 14 12 9 8 8 9 9 8 11 13 13 13 14 15 16 17 17 16 15 14 12 11 11 10 9 8 7 7 7 8 8 8 9 9 9 9 9 9 9 9 10 9 10 10 10 9 9 9 9 8 8 8 9 9 9 8 8 7
25 25 23 21 19 16 16 16 15 15 15 16 16 13 12 14 13 13 17 19 14 10 8 5 4 7 7 7 7 6 6 6 6 5 8 11 13 15 15 15 14 12 11 10 10 10 10 12 14 14 14 14 15 16 17 17 16 15 13 12 11 10 10 9 8 8 7 8 8 9 8 8 9 9 9 8 9 8 8 9 9 9 9 9 9 9 9 9 8 9 9 10 11 10 10 9 8
23 23 20 19 18 17 18 17 14 14 16 18 17 14 14 15 13 15 19 18 16 13 9 6 6 8 8 7 7 7 8 8 8 6 6 9 12 15 16 17 17 15 13 12 12 12 11 13 14 14 15 15 16 17 17 17 16 15 13 11 10 9 9 9 8 8 8 8 8 9 9 8 8 8 8 8 9 8 8 9 9 9 9 9 10 10 11 10 10 10 11 12 12 12 12 12 11
21 21 20 19 18 18 18 17 15 16 19 21 20 18 16 16 13 15 20 19 17 14 9 7 7 7 8 7 7 8 8 9 9 9 7 7 10 14 16 18 18 17 15 14 14 13 13 14 15 15 16 16 17 17 17 16 15 14 13 11 10 9 9 9 8 8 8 8 9 9 9 8 8 8 8 8 9 8 8 9 8 8 10 11 11 12 12 11 11 11 12 13 14 14 14 14 14
21 20 19 18 18 19 17 16 18 17 19 21 22 18 15 16 15 16 21 21 18 13 8 9 9 7 8 8 8 8 7 9 10 10 10 8 9 12 15 18 18 18 17 16 15 14 14 15 16 16 18 17 17 17 16 15 14 13 12 11 10 10 9 9 9 9 9 9 9 9 8 8 8 8 8 9 9 9 8 8 8 9 11 12 12 12 12 11 11 12 13 14 15 15 16 16 16
22 21 20 20 19 18 14 16 15 11 13 18 19 16 14 18 19 19 22 21 18 14 10 10 10 8 8 9 10 8 7 9 10 10 10 10 9 10 13 17 18 18 18 17 16 15 15 17 17 17 18 18 17 17 16 15 13 13 12 11 10 10 9 9 9 9 9 9 9 9 8 8 8 8 8 8 9 8 8 8 9 10 11 12 12 12 12 11 11 13 14 15 15 16 16 16 16
25 25 24 21 20 18 14 15 12 6 12 13 13 15 14 20 22 21 22 21 19 16 14 12 10 10 11 11 10 8 8 9 9 9 10 11 10 10 11 14 17 18 17 16 17 17 17 18 19 19 19 19 18 18 18 16 15 14 13 12 11 10 10 10 9 9 10 10 10 9 9 8 8 8 8 8 8 8 8 8 9 10 11 12 13 13 12 11 12 13 14 14 15 15 15 16 15
28 28 25 22 22 19 15 15 14 13 17 17 16 19 16 19 23 21 21 22 21 17 15 13 11 11 13 13 10 8 9 9 9 9 9 10 10 11 11 11 14 17 17 17 18 18 18 20 20 21 21 20 19 19 19 18 16 15 13 12 11 11 10 10 10 10 11 11 11 10 9 8 8 8 8 7 7 8 8 9 9 9 10 12 13 13 12 12 12 12 13 13 14 14 14 14 14
30 30 28 26 24 21 17 16 18 20 20 21 22 24 20 18 21 22 22 23 24 20 17 16 14 14 14 13 11 9 9 10 10 9 10 10 10 11 11 10 12 16 18 18 19 19 19 20 21 21 22 22 21 20 18 17 16 15 13 11 11 11 11 11 11 12 12 12 12 11 10 9 8 8 7 7 7 7 7 8 8 8 9 12 12 11 12 12 11 11 12 12 13 14 14 14 13
32 32 31 28 25 23 18 16 20 23 21 24 24 25 23 20 21 23 24 25 25 22 21 20 18 15 13 12 12 11 10 10 10 10 10 11 10 11 11 10 11 14 17 18 19 19 19 21 22 22 23 23 22 21 19 17 15 14 12 11 11 11 12 12 12 13 13 13 12 11 10 9 8 8 7 7 7 6 7 7 8 8 9 11 11 10 11 11 11 11 11 11 12 12 12 12 12
31 32 33 29 26 25 20 15 14 19 23 26 26 28 29 24 24 27 27 27 27 23 23 23 19 16 14 13 14 13 11 11 10 10 10 10 10 11 12 12 11 13 16 19 20 20 21 22 23 24 24 23 23 21 19 17 15 14 13 12 11 12 13 13 14 14 14 13 12 11 10 9 8 8 7 6 6 6 6 7 7 8 8 9 10 10 11 11 10 10 9 9 10 11 10 10 10
30 31 33 30 27 27 24 23 15 17 23 26 27 30 31 24 22 28 30 30 29 24 22 23 21 19 16 13 13 15 13 11 10 10 10 10 10 10 12 11 11 12 15 19 21 21 22 23 24 24 24 23 23 21 19 18 16 15 14 14 14 14 15 15 14 14 13 12 11 11 11 10 9 8 7 7 6 5 5 6 6 6 7 8 9 10 10 10 10 9 9 8 9 10 10 9 9
29 28 30 31 31 31 29 31 27 24 24 28 29 28 29 26 21 23 26 29 30 26 24 26 22 20 17 13 14 15 13 12 11 11 11 11 10 10 12 13 11 13 16 20 22 21 21 23 23 23 23 23 22 20 19 17 16 16 15 15 15 15 15 14 13 12 12 12 12 13 12 11 10 8 7 7 6 5 4 4 5 5 5 6 8 9 10 9 10 9 8 8 9 9 9 10 10
28 25 28 32 33 34 32 34 36 30 25 28 33 29 28 29 24 20 21 26 30 28 26 28 23 18 16 14 15 15 14 14 12 11 11 11 11 10 12 14 14 15 17 20 21 21 20 22 23 23 23 22 21 19 18 17 17 16 16 16 16 15 13 12 11 11 12 13 13 13 13 11 10 8 7 7 6 5 4 4 4 4 4 5 6 8 8 9 9 8 8 8 8 9 9 9 10
28 25 28 32 33 34 32 36 39 34 29 28 32 33 31 30 27 25 25 25 28 28 25 26 24 20 16 13 16 17 15 15 12 10 11 11 12 12 12 14 14 15 17 19 21 22 21 21 22 23 22 22 20 18 17 17 17 17 17 17 16 14 12 11 11 12 13 13 13 13 12 10 9 7 7 6 6 5 4 3 3 4 4 5 5 6 6 7 8 7 7 7 7 7 8 9 9
27 25 28 31 34 34 34 38 40 38 36 33 29 32 34 33 28 26 28 27 26 25 24 25 25 24 20 14 15 17 17 15 12 10 11 11 12 14 12 12 13 14 17 19 21 22 21 20 21 22 22 21 20 18 17 16 17 16 16 16 15 13 11 11 11 12 13 13 12 11 10 9 8 8 7 6 5 4 3 2 3 3 4 5 5 5 5 6 6 6 6 6 6 6 6 8 8
28 27 29 31 34 36 36 38 40 42 44 40 33 29 33 35 28 22 27 29 26 25 25 26 26 25 21 14 13 15 17 18 16 14 12 12 12 13 11 9 12 15 17 18 19 20 20 20 20 21 21 21 19 18 17 16 16 16 16 16 15 13 11 10 11 12 12 11 10 8 8 8 8 8 8 6 5 3 2 1 2 3 4 4 5 5 4 5 5 5 4 4 4 5 5 6 7
30 30 31 31 32 34 37 39 41 45 47 42 38 34 34 37 29 21 25 27 24 23 24 25 27 27 22 14 10 11 14 18 20 17 13 12 11 10 10 9 12 15 16 17 18 19 20 21 21 20 20 19 18 17 16 16 15 15 16 16 14 12 11 10 11 11 10 9 8 7 7 8 8 8 7 6 5 3 2 1 1 2 3 4 5 5 4 4 4 4 4 3 3 3 3 3 5
34 34 33 33 32 34 37 40 44 48 46 41 39 39 39 39 30 23 27 27 19 15 17 21 24 25 23 18 12 10 14 18 19 17 13 12 11 10 10 11 13 15 16 18 19 19 20 22 22 21 19 17 16 15 15 15 15 15 15 15 14 12 11 11 11 10 9 8 7 7 7 7 7 7 6 6 5 4 3 2 2 2 3 4 4 5 5 5 5 4 4 4 2 1 1 1 2
36 36 34 33 34 35 37 39 41 44 42 40 40 40 42 40 32 27 26 23 17 12 17 21 21 22 23 20 14 14 15 14 15 16 15 13 12 11 11 12 13 16 18 20 21 21 21 22 23 22 20 18 16 15 14 14 15 15 15 14 13 12 12 12 11 10 8 7 7 7 7 6 6 6 5 6 6 4 4 3 3 3 3 3 4 5 6 6 6 5 5 4 3 2 1 1 1
35 34 33 34 35 35 35 33 33 35 37 40 43 42 41 40 36 30 24 21 18 15 18 25 26 26 27 24 18 20 17 15 17 18 17 15 14 13 12 13 15 18 20 20 21 21 22 22 24 24 22 19 16 14 14 14 15 15 14 13 13 13 13 13 11 9 8 8 8 7 7 6 5 4 4 5 5 4 3 4 4 4 4 4 4 4 5 6 7 7 6 5 5 4 4 3 3
36 37 37 36 34 32 30 28 29 31 34 38 41 38 35 36 37 34 30 28 25 22 23 27 31 30 29 28 22 19 19 20 20 20 19 17 15 13 12 13 16 18 19 20 20 21 22 22 23 23 22 21 19 17 15 15 15 15 14 13 13 13 14 13 11 10 9 9 9 8 7 6 6 6 6 6 6 5 4 4 5 5 5 5 5 5 5 6 7 7 7 7 6 5 6 6 5
39 40 38 33 30 29 29 30 29 30 32 33 34 33 33 36 37 35 34 32 30 32 31 30 30 29 27 28 23 17 17 19 19 19 19 18 16 14 12 13 17 18 18 20 22 22 22 22 23 23 21 20 19 18 17 16 15 14 13 13 13 13 13 12 11 10 9 9 9 9 8 8 8 8 8 8 8 8 7 7 7 7 7 7 6 6 6 6 6 7 7 8 7 7 7 7 8
42 41 36 32 31 31 32 34 31 30 31 28 28 29 29 33 31 27 29 28 28 32 34 32 31 30 29 30 24 17 17 17 17 19 20 20 19 17 14 15 17 18 19 21 23 23 22 22 23 22 20 19 17 17 17 17 16 15 14 13 13 13 13 12 11 10 9 9 9 9 9 9 9 9 9 9 9 10 10 10 10 10 10 10 9 9 8 7 7 7 7 8 8 8 8 8 9
43 41 36 33 34 36 38 36 32 31 29 27 26 26 25 27 23 19 21 23 21 24 27 30 33 34 33 31 25 20 20 19 18 19 20 21 21 18 16 16 18 18 19 20 22 23 22 22 22 21 20 18 17 16 16 17 16 15 14 14 13 13 12 11 11 10 9 9 9 9 9 9 8 8 9 9 10 10 11 11 11 11 11 12 12 11 11 10 9 9 8 9 9 9 9 9 9
44 40 37 35 35 37 38 35 31 29 28 25 22 21 21 21 16 14 16 17 18 20 23 26 31 36 36 32 28 24 21 20 19 19 21 22 20 18 17 17 19 20 19 19 21 22 22 22 22 21 19 17 16 15 15 14 14 14 14 14 13 12 12 12 11 11 10 10 11 10 9 9 9 9 9 9 10 10 11 12 12 12 12 13 13 13 13 12 11 11 11 10 10 11 11 10 10
46 43 41 39 37 36 37 34 31 29 27 23 18 19 19 14 11 13 14 13 15 16 21 26 28 32 34 31 29 24 19 19 19 18 20 21 19 18 19 19 20 21 19 17 19 20 20 21 22 20 18 17 15 15 14 14 13 13 13 13 12 12 13 13 12 12 12 11 11 10 10 10 9 9 9 9 10 10 10 11 12 12 13 13 14 14 14 14 13 13 13 12 12 12 12 12 12
44 44 44 42 38 36 37 35 32 31 29 24 18 16 13 10 13 16 13 12 15 15 19 27 27 27 30 29 28 24 20 20 20 19 19 19 18 19 20 19 18 17 17 17 18 18 18 20 21 19 17 16 16 16 16 16 15 14 14 13 13 13 14 14 14 13 12 11 10 10 10 9 9 9 8 8 9 9 9 9 10 11 12 13 14 15 16 16 15 14 14 14 14 14 14 14 14
Wind_Direction
97 94 89 87 96 105 108 118 110 97 78 79 90 87 97 109 105 99 94 104 100 89 94 96 95 101 114 117 122 118 112 119 118 112 105 100 103 113 119 122 118 114 112 110 112 115 120 122 121 123 128 130 132 135 134 132 133 137 141 137 130 131 139 143 143 139 134 129 125 121 118 113 108 102 99 98 98 98 97 96 95 94 92 89 89 89 89 87 85 82 76 72 69 65 61 56 52
98 91 88 87 89 85 91 108 91 88 92 89 88 81 95 109 100 105 120 115 103 97 95 93 96 109 119 121 126 119 116 119 113 110 104 103 99 104 118 125 122 116 114 112 111 115 118 119 119 122 126 128 130 132 130 131 135 138 135 128 127 134 141 144 142 138 132 128 126 123 120 115 109 104 100 97 95 95 94 93 92 89 87 85 85 83 81 79 74 69 63 58 54 50 48 44 44
100 95 90 92 90 80 80 89 86 89 96 94 90 83 91 98 102 127 134 110 100 103 102 101 109 126 129 124 125 121 117 117 114 114 106 105 103 102 112 118 121 119 117 114 113 116 117 117 117 119 121 123 127 128 129 132 132 130 124 119 124 135 142 143 140 135 131 130 128 125 121 116 113 108 101 95 92 91 92 91 89 87 85 83 82 81 80 77 72 67 62 58 55 51 49 47 50
106 100 92 97 97 93 91 88 91 94 94 93 93 90 88 96 106 119 120 105 100 107 104 105 110 121 130 128 126 123 114 108 114 119 107 102 109 113 114 115 120 119 118 118 118 120 120 120 116 115 117 120 123 125 127 125 123 119 114 115 126 138 141 139 135 132 132 130 126 124 122 118 114 107 99 94 92 91 90 90 88 87 85 85 83 82 81 79 74 69 64 60 57 56 54 53 55
108 102 100 104 101 106 101 90 92 93 91 88 84 81 73 93 109 107 111 111 112 112 106 112 116 121 135 136 133 131 122 111 123 128 109 105 112 117 118 119 121 119 120 121 121 124 125 121 114 113 115 118 119 121 121 118 116 112 111 119 129 135 134 133 132 131 131 128 125 124 121 117 110 103 97 93 92 91 90 89 88 88 87 85 83 83 81 78 75 70 65 61 59 58 58 56 56
112 116 114 97 92 108 107 97 95 94 88 79 79 78 71 107 111 102 102 105 107 102 106 121 125 129 140 138 138 138 129 123 132 143 113 116 125 120 122 122 122 121 122 122 121 124 124 117 110 112 113 114 116 117 115 115 113 110 113 117 122 125 126 127 129 130 129 127 125 123 118 111 105 99 96 94 93 92 91 89 88 87 85 83 82 81 80 78 76 72 67 64 63 62 64 64 64
124 130 121 97 91 106 112 104 95 98 93 75 77 84 87 91 84 78 80 83 85 87 103 127 128 132 142 139 143 140 131 131 132 135 115 123 138 125 124 125 123 123 123 121 119 120 117 113 111 113 114 115 115 116 114 114 110 108 110 112 117 119 120 124 127 129 128 126 124 120 113 107 102 99 97 96 94 92 89 86 84 82 81 80 81 81 81 82 81 77 72 69 68 68 70 71 73
120 121 122 110 106 110 104 99 97 94 88 86 84 82 78 67 67 69 71 75 79 80 96 122 131 135 145 147 147 140 135 134 132 134 120 127 139 131 128 128 126 124 123 121 118 117 114 112 114 117 118 118 117 115 113 110 106 106 108 111 116 116 118 121 125 127 125 124 122 117 111 106 103 102 101 98 95 91 87 84 81 80 81 83 85 87 88 89 88 83 77 74 73 74 77 78 78
117 115 133 123 125 132 100 92 118 97 82 105 105 90 75 70 77 75 66 72 72 75 89 112 135 141 145 158 153 146 148 140 134 134 130 133 137 134 132 131 131 127 123 121 119 116 114 113 117 123 121 119 118 113 110 107 105 106 109 114 115 113 115 118 121 123 122 122 120 116 111 108 106 104 100 96 92 90 88 85 84 85 87 90 92 94 96 96 92 87 83 80 80 80 81 81 79
122 108 135 140 142 155 139 113 112 95 81 99 107 101 93 89 94 88 69 68 66 77 94 114 138 148 143 158 164 153 156 137 132 129 132 138 136 134 132 133 135 131 125 121 120 118 115 116 121 126 123 120 115 110 109 108 108 109 112 116 114 112 112 115 118 119 120 120 118 115 111 109 107 101 96 94 93 92 92 90 90 91 93 95 97 99 99 99 96 93 89 85 84 83 84 83 82
130 114 125 150 165 168 160 132 105 94 73 58 88 81 76 77 73 74 69 69 68 77 90 120 141 150 141 153 161 156 163 136 132 129 135 140 136 134 133 136 135 130 126 123 122 121 119 120 125 127 123 118 112 110 111 110 110 112 114 116 114 112 113 115 117 118 119 118 115 113 111 110 106 100 96 96 98 99 100 99 97 96 96 97 98 98 98 97 96 94 91 87 85 84 83 83 83
158 148 129 134 141 112 107 113 116 103 72 43 65 46 43 53 52 59 63 69 70 80 94 126 140 140 139 155 168 170 198 150 142 134 138 139 136 135 136 140 137 132 129 125 125 124 125 123 126 127 120 116 112 111 111 112 113 112 113 114 114 114 116 117 117 118 117 115 114 113 114 112 108 103 101 103 107 109 108 105 101 99 97 96 95 94 94 93 91 89 88 86 83 81 80 80 79
174 176 160 147 117 100 112 114 129 99 78 55 45 31 31 53 59 60 59 62 74 89 101 132 139 137 145 166 183 194 224 167 159 139 137 138 139 141 143 146 144 143 136 128 128 128 127 125 127 126 119 115 113 112 112 113 114 112 111 112 115 118 119 119 118 118 117 115 115 117 118 115 111 109 110 113 114 113 110 106 102 99 97 94 92 90 88 87 86 84 83 82 80 79 78 77 77
178 180 183 178 151 133 148 151 181 89 71 50 33 25 20 42 59 62 59 65 81 89 94 135 142 149 162 171 175 208 263 185 165 144 138 139 139 142 146 151 149 150 143 133 133 132 128 127 130 124 118 116 114 113 113 115 114 112 112 113 115 119 120 119 119 119 117 117 118 120 119 116 115 115 116 116 114 112 108 104 100 96 92 89 86 84 83 82 81 79 76 75 75 76 76 74 74
179 181 182 180 176 177 181 142 124 67 53 39 30 21 358 21 46 48 65 71 78 90 105 135 154 174 182 182 170 201 252 202 171 153 146 143 139 142 148 152 153 154 148 141 138 135 132 131 126 119 115 116 115 114 116 117 115 114 114 113 115 119 119 118 119 119 117 117 119 120 120 118 117 117 115 113 112 110 105 101 95 89 84 81 80 80 79 78 78 76 73 70 68 68 70 71 70
181 186 182 186 197 158 155 118 64 19 57 61 30 8 343 15 31 8 72 69 86 118 111 136 201 189 197 201 173 188 213 208 188 166 150 150 142 140 148 155 158 158 154 148 143 138 134 129 122 116 114 115 115 116 120 120 117 117 116 115 117 119 118 118 119 117 116 117 119 120 119 119 118 116 113 112 110 107 103 98 92 86 81 79 79 77 77 76 75 73 71 69 68 66 66 66 64
185 195 192 194 197 165 164 129 38 276 107 83 302 309 340 22 30 341 127 285 253 231 131 186 228 214 211 207 188 185 190 196 203 186 160 171 155 132 146 157 160 160 158 153 145 141 132 126 121 116 116 115 117 119 123 123 121 120 117 117 119 120 119 119 118 117 118 120 121 121 121 120 118 116 113 111 109 105 100 95 91 86 82 81 79 77 75 72 70 69 67 65 65 65 66 65 63
190 200 207 199 199 191 193 193 168 168 159 229 245 242 359 31 44 16 52 80 258 280 251 194 238 245 224 211 207 199 192 193 203 199 184 207 197 130 147 162 163 158 159 157 149 141 132 127 123 118 117 116 118 123 126 125 124 122 119 119 120 120 119 119 120 120 121 123 123 123 122 121 118 115 112 109 106 101 96 92 89 86 84 83 80 78 75 70 66 66 65 64 61 60 63 65 66
197 202 213 205 200 194 183 185 163 133 200 230 240 245 278 207 84 353 3 43 299 306 305 196 199 217 220 225 227 231 231 212 203 195 192 216 221 172 170 170 166 160 160 161 154 145 134 130 126 121 119 119 122 126 129 128 127 123 120 120 121 121 121 121 122 123 123 124 123 123 122 120 117 113 110 106 102 98 94 91 87 84 82 80 76 73 70 67 63 64 66 66 63 59 60 64 68
207 204 212 212 203 193 181 192 206 208 225 235 250 276 280 248 241 222 267 337 331 326 69 50 212 195 208 232 245 245 244 227 213 202 197 209 210 208 206 186 174 167 164 162 158 150 140 133 129 126 123 122 126 130 131 132 129 125 122 122 122 123 124 125 126 126 126 125 124 123 121 118 114 109 104 100 98 95 91 89 87 83 77 73 69 66 66 65 63 64 66 69 68 63 60 63 68
215 208 212 218 211 206 210 223 231 234 270 291 260 285 283 271 281 262 250 16 34 48 92 51 279 198 207 238 255 254 249 232 221 216 209 205 204 209 211 202 183 173 168 162 160 156 145 138 133 130 127 125 129 134 135 135 132 127 125 123 124 127 127 128 130 130 130 129 128 123 119 115 109 104 99 96 93 90 88 85 82 78 75 73 69 65 66 65 63 62 63 69 73 72 66 64 67
222 216 214 217 216 214 224 237 229 218 246 286 276 283 278 276 286 298 296 231 207 268 201 99 283 228 215 244 257 258 255 238 225 225 221 209 200 210 214 208 191 178 172 162 160 162 150 141 137 132 129 128 131 137 139 137 134 130 127 126 127 130 130 130 129 129 127 127 126 120 116 111 105 100 93 91 90 87 86 83 79 76 74 75 71 69 67 61 60 62 63 66 71 74 72 67 69
227 224 216 213 214 210 220 237 225 212 217 269 270 268 271 272 279 291 288 251 187 232 226 182 234 326 309 261 265 262 254 246 234 233 234 222 203 208 223 221 207 186 173 163 159 162 155 145 141 136 132 131 135 142 144 140 135 132 129 128 129 131 132 131 129 125 124 124 122 117 114 108 102 97 90 86 85 82 80 77 75 74 71 70 68 69 68 59 58 64 65 66 69 71 71 68 70
227 227 221 216 214 208 218 223 222 244 264 265 265 262 266 267 271 284 284 276 137 216 230 232 229 243 318 301 277 268 256 250 244 245 247 240 220 207 226 235 224 199 178 166 160 163 160 151 145 140 136 137 141 146 147 143 137 133 132 131 131 132 132 130 128 127 125 123 119 115 112 104 97 93 87 83 80 77 75 72 69 68 65 63 64 69 68 61 62 66 67 65 66 70 70 67 70
226 229 227 222 217 209 216 220 228 254 265 258 265 259 258 263 266 279 282 277 224 244 238 240 243 251 294 298 275 265 254 249 246 246 246 245 234 209 220 237 230 209 184 169 165 166 161 156 152 145 141 142 147 151 150 144 138 135 134 133 132 132 131 128 127 127 123 117 113 110 104 99 94 88 83 80 76 73 71 70 68 65 62 59 61 65 63 59 60 63 65 64 67 71 69 64 66
221 226 229 224 220 216 217 223 231 246 250 248 254 246 243 244 246 269 277 263 227 237 243 246 255 271 282 281 268 264 253 252 251 248 246 244 239 219 217 228 225 208 185 174 171 168 164 163 160 150 146 148 152 155 151 145 141 137 135 134 135 134 130 128 126 124 120 114 111 107 102 100 97 90 84 80 77 74 72 70 68 65 63 58 56 58 56 55 55 58 61 62 67 67 64 61 66
218 220 227 226 222 222 221 223 226 234 240 238 242 247 248 235 234 261 264 245 220 228 251 257 261 278 281 265 253 260 252 250 255 255 251 243 236 228 222 223 220 203 183 178 179 173 168 169 166 157 151 152 157 157 153 148 144 140 138 138 138 137 133 128 124 120 116 113 111 106 104 103 98 92 87 85 82 79 75 70 64 60 58 55 53 51 50 50 50 53 55 56 60 61 62 63 65
219 217 222 226 224 222 221 223 224 228 232 232 237 245 245 230 222 259 256 246 229 230 255 253 238 251 267 271 261 259 260 253 254 253 245 235 228 227 225 222 216 205 188 179 184 181 172 174 170 161 156 156 160 159 155 151 148 144 142 143 143 141 136 129 125 120 115 111 108 105 103 102 97 92 90 89 86 80 75 69 62 57 52 49 47 43 42 42 42 47 49 51 54 56 60 63 63
223 221 221 224 225 226 223 222 222 226 228 229 233 236 240 232 207 242 253 255 238 227 261 248 218 230 250 276 285 278 280 272 261 252 243 236 229 226 224 221 216 207 194 182 187 185 176 177 172 164 160 160 162 161 158 155 150 147 147 148 147 143 138 132 129 124 118 114 110 105 101 99 97 94 92 89 84 79 74 68 61 56 52 47 44 39 37 37 37 40 43 48 49 49 57 60 62
224 227 228 225 224 227 230 227 223 225 228 230 232 231 239 239 227 240 249 252 238 221 257 254 236 247 255 272 288 287 282 274 269 263 254 245 234 226 221 218 216 207 196 185 185 184 181 180 173 167 164 162 164 163 160 157 153 150 150 151 148 144 139 135 134 130 123 119 114 107 102 101 100 97 93 87 82 78 74 71 63 56 51 47 41 34 34 37 38 40 41 47 46 43 52 57 59
223 226 229 229 228 228 232 234 229 228 229 234 237 231 233 236 233 240 247 249 243 229 237 247 259 256 262 283 289 285 285 281 275 274 270 259 243 230 221 215 213 206 197 188 183 182 181 182 177 170 166 165 166 166 162 159 156 153 153 154 151 145 140 138 138 135 128 124 118 111 107 104 101 96 92 87 82 76 72 71 65 58 53 48 41 32 34 39 44 50 49 49 45 38 40 45 48
226 228 229 229 229 226 228 233 235 231 229 233 237 233 229 235 231 225 238 248 246 239 236 224 230 240 257 285 289 287 295 296 282 273 273 267 251 235 225 216 209 206 199 189 184 183 181 183 180 172 168 167 167 167 163 160 158 156 156 156 154 148 143 139 139 139 134 129 121 115 111 106 100 94 90 86 80 73 70 70 65 59 54 48 41 34 37 42 48 53 52 50 46 38 34 35 35
229 231 232 230 226 225 228 231 230 226 229 231 232 231 227 229 229 223 231 243 245 245 244 226 225 243 258 278 285 288 295 301 294 280 272 267 257 240 229 221 212 208 202 191 186 184 181 183 182 175 169 169 169 167 164 162 159 158 158 159 157 151 145 141 141 144 141 133 125 120 116 110 103 97 92 88 82 75 71 70 67 61 53 44 38 36 38 40 47 52 53 53 50 44 39 38 39
232 234 235 233 227 224 226 231 229 223 230 234 229 224 227 225 217 225 235 240 247 249 242 239 241 246 259 273 277 278 288 300 299 292 286 270 259 248 235 225 217 212 205 194 189 186 182 183 182 177 171 170 170 167 165 164 161 160 162 163 161 155 151 148 148 150 147 139 131 127 123 116 111 106 99 91 84 77 71 69 67 60 49 39 36 38 40 41 49 56 58 57 55 51 47 43 44
235 237 237 235 232 227 222 227 233 229 226 232 233 221 218 225 211 220 240 241 243 242 226 242 252 239 253 274 274 273 284 297 299 296 294 281 260 251 241 230 222 216 208 196 190 188 182 182 183 178 171 170 171 169 167 165 162 162 165 168 165 161 161 157 156 155 151 145 138 133 130 126 121 113 102 92 84 78 74 70 64 57 46 38 38 43 46 47 54 61 62 61 59 55 52 49 47
235 236 235 232 232 230 223 222 227 238 229 222 233 231 223 232 220 216 236 241 237 235 228 241 256 252 254 267 269 277 289 297 300 297 297 289 266 247 241 235 229 223 214 199 190 188 184 180 181 179 173 172 173 170 169 168 167 167 170 174 171 166 167 164 162 162 156 150 144 140 138 135 128 114 101 92 87 81 76 70 64 58 50 43 44 49 51 54 61 67 67 65 61 57 54 52 51
231 232 231 227 228 227 221 219 207 230 256 233 237 254 245 237 228 218 228 237 232 231 241 246 255 264 262 259 261 277 293 299 301 297 294 290 272 249 239 236 234 229 219 205 193 189 185 181 179 179 175 173 176 175 173 173 174 174 175 177 174 169 170 169 167 167 162 155 150 147 146 142 131 115 102 93 89 85 79 72 67 63 56 47 47 52 55 58 63 69 70 67 62 59 56 54 53
225 229 228 223 222 218 214 218 190 192 244 252 253 264 251 229 228 225 226 234 236 237 248 248 242 250 255 258 263 275 288 295 296 291 290 288 275 253 235 230 231 228 221 209 199 193 187 183 179 177 175 174 179 180 177 178 177 176 176 176 174 170 171 171 169 171 167 159 156 154 152 147 133 118 108 98 89 83 80 76 69 63 57 51 48 52 59 62 64 68 68 66 62 58 56 54 52
220 223 225 222 216 209 205 204 176 177 223 244 248 258 253 230 228 231 229 233 239 241 246 245 235 235 244 255 268 271 274 284 288 287 290 290 280 259 239 224 222 223 220 211 203 197 188 184 181 178 177 176 180 183 182 182 181 175 172 175 175 170 172 173 171 174 172 164 162 159 155 149 137 124 115 105 91 78 75 75 71 60 53 53 51 52 61 67 68 68 65 62 60 56 52 51 50
217 217 221 221 216 208 194 186 175 174 208 236 241 249 255 249 237 233 234 238 239 237 239 242 238 239 243 248 261 263 260 270 280 286 290 292 284 263 242 224 216 218 220 214 207 202 192 185 182 181 181 180 181 185 185 184 183 176 171 175 177 175 175 176 176 179 175 169 166 161 157 153 143 132 123 111 96 82 71 68 66 56 47 49 52 53 59 66 72 73 68 63 60 52 43 41 42
219 216 218 217 218 213 182 169 194 190 205 228 237 245 252 249 238 231 232 239 240 234 232 237 237 242 244 239 250 259 257 261 273 282 285 288 286 264 242 225 213 213 217 214 208 205 197 188 184 185 185 184 184 186 185 184 184 178 174 178 180 182 183 182 183 182 177 172 167 160 158 157 150 140 132 119 104 90 77 68 63 58 49 45 47 50 54 62 69 72 70 66 58 47 37 35 36
223 218 219 213 212 213 180 162 195 209 212 223 229 240 247 244 233 228 227 234 242 239 237 236 230 233 240 234 243 255 258 261 267 275 279 283 284 267 249 235 218 215 216 213 208 205 201 193 187 189 189 188 188 187 185 185 186 181 179 183 187 189 190 188 187 184 177 171 166 163 163 164 160 154 144 132 117 101 86 78 70 65 59 47 44 47 49 56 64 66 63 60 53 45 40 39 40
227 220 219 214 209 211 191 171 184 203 217 231 233 237 249 250 240 235 232 234 241 243 246 248 238 232 235 230 233 246 257 264 267 270 273 278 276 259 246 238 225 219 215 210 208 206 205 198 192 192 193 193 192 189 186 186 188 186 185 189 194 196 194 190 188 185 179 175 172 172 172 172 171 165 154 141 128 114 98 88 80 70 63 53 47 45 43 47 58 62 59 53 50 49 47 45 44
230 220 215 217 214 215 203 182 183 193 206 229 240 244 253 254 248 255 255 239 238 240 244 255 257 244 232 217 216 229 246 257 263 267 271 275 271 256 245 237 224 216 211 207 207 207 207 203 197 195 197 198 195 192 190 190 191 191 191 194 199 200 195 190 189 187 185 183 182 181 180 179 177 172 159 145 137 129 115 100 87 75 67 57 51 48 43 41 48 57 60 56 55 54 51 46 43
228 221 215 216 217 219 211 192 185 187 194 212 234 244 248 247 246 260 261 244 241 241 238 251 262 259 246 220 210 217 232 246 252 260 267 271 263 253 246 240 226 210 206 205 205 206 207 206 203 199 200 201 199 196 195 195 196 196 198 200 202 201 195 191 191 193 193 192 191 188 185 183 178 173 164 155 152 146 127 105 85 75 69 59 51 49 48 46 44 49 57 60 63 61 52 44 41
225 221 218 214 214 217 214 204 192 187 193 198 213 237 244 243 245 251 252 247 247 245 239 244 255 261 259 235 215 219 225 236 246 252 259 263 258 253 248 243 229 210 204 205 204 205 207 208 206 203 203 204 201 200 201 201 202 202 204 207 206 203 198 195 196 200 203 201 199 194 187 182 179 176 173 173 171 158 139 105 72 57 54 54 49 39 41 49 48 46 51 60 68 68 55 43 36
222 220 219 214 214 214 214 214 204 197 200 195 194 219 240 245 241 236 242 248 251 249 243 242 246 253 257 242 222 225 225 230 239 244 251 257 256 256 254 239 225 215 208 206 206 208 210 210 208 206 205 206 204 202 203 206 208 208 210 211 210 206 201 198 201 206 210 207 204 199 188 180 181 185 183 185 189 173 155 120 57 38 29 37 43 36 29 39 49 50 51 61 69 66 56 43 34
219 218 218 215 215 214 213 215 213 212 213 205 195 201 222 237 236 233 245 251 251 247 241 239 244 249 252 249 234 228 221 221 230 237 244 255 256 257 258 237 219 214 209 208 208 211 213 211 209 207 204 205 205 204 205 209 212 213 215 216 213 208 202 202 205 210 212 209 203 198 192 186 188 196 194 191 199 201 203 257 346 19 14 17 29 31 24 28 39 44 42 49 68 71 60 42 30
217 217 216 214 213 215 216 213 215 221 222 217 208 205 217 229 229 233 246 252 255 258 252 249 250 249 247 247 237 213 204 210 225 236 241 253 256 250 247 235 220 212 209 207 206 208 212 213 210 206 204 204 206 207 207 210 214 215 216 218 216 210 203 204 209 212 210 205 200 196 198 200 199 203 203 197 203 220 242 272 300 328 352 4 14 17 14 15 23 29 29 26 30 48 55 37 22
217 219 218 219 220 222 223 219 219 224 226 224 217 217 228 234 233 233 233 239 251 266 269 264 258 251 249 250 228 188 188 209 229 240 242 246 248 242 238 234 226 218 213 209 205 204 207 210 209 205 203 204 206 209 209 209 213 215 215 216 216 211 206 206 210 211 207 201 198 196 199 207 210 207 204 203 212 232 251 268 297 313 327 343 354 2 2 1 7 14 16 10 360 343 323 310 314
220 223 223 224 227 230 232 231 229 228 230 228 221 224 237 240 242 240 223 223 236 237 251 260 259 256 258 255 222 183 191 223 235 239 240 238 239 236 231 230 228 224 219 214 209 206 205 206 207 206 202 199 200 204 205 207 212 214 212 210 210 208 207 208 210 210 205 198 197 198 197 203 212 212 203 208 225 245 262 271 291 312 322 330 336 341 346 347 352 360 2 360 352 336 321 309 293
220 222 223 224 227 232 236 237 236 233 232 231 229 235 245 244 247 246 231 229 235 227 230 244 252 256 257 253 234 207 214 230 234 237 235 233 236 232 226 228 229 225 221 218 213 209 207 206 207 207 203 198 195 195 199 203 209 213 209 203 202 205 206 207 209 209 203 195 196 200 200 200 207 214 215 221 237 254 270 276 283 299 309 317 324 324 326 330 336 345 350 352 349 337 323 313 304
220 221 224 226 225 227 230 232 233 234 235 237 239 244 246 244 247 248 242 237 234 232 232 234 246 255 253 250 243 223 217 224 230 231 226 225 230 228 226 230 230 228 225 221 216 213 211 209 209 208 205 201 199 197 197 200 205 208 204 197 196 200 203 206 208 205 198 192 195 201 203 205 208 215 225 233 243 253 263 271 274 280 288 293 297 301 304 311 317 326 335 339 343 341 330 317 308
223 225 224 223 220 219 224 228 228 232 236 239 241 242 241 241 240 241 244 238 226 230 234 230 235 246 249 251 245 216 206 220 226 220 215 216 221 221 222 227 227 227 227 224 218 214 214 214 213 210 205 200 199 199 199 200 201 200 196 192 192 196 199 205 207 202 197 197 201 206 209 213 216 219 228 236 244 251 257 264 269 272 278 282 282 282 285 291 297 304 312 319 327 333 332 323 313
224 228 225 220 218 218 221 224 225 230 236 238 239 242 244 243 236 227 235 238 224 223 228 224 223 231 239 247 244 221 212 224 226 217 214 214 215 215 218 225 227 224 225 226 220 215 216 218 216 211 205 199 195 194 197 199 198 194 190 188 190 194 199 206 208 207 206 209 214 218 221 225 228 229 232 239 245 253 258 262 266 271 275 279 280 280 279 280 283 288 293 299 306 314 318 319 314
220 223 225 220 218 223 225 225 227 229 233 237 240 242 245 245 237 214 213 227 229 222 221 218 217 224 231 237 242 232 223 232 231 220 215 212 209 211 216 225 230 226 225 228 225 219 217 220 218 209 203 197 191 189 191 194 194 191 188 188 190 193 199 205 210 212 216 220 223 227 232 235 237 241 244 249 254 258 264 269 271 272 273 276 279 280 279 278 278 279 283 286 290 296 302 306 307
216 216 220 219 215 220 226 226 225 224 226 228 231 234 241 250 247 233 225 228 231 222 217 217 218 226 232 236 240 236 230 233 225 209 210 208 201 206 215 221 225 225 224 229 232 227 222 223 220 210 199 190 185 182 182 184 187 189 190 191 193 195 199 204 208 213 217 221 224 228 235 239 243 249 254 260 264 265 267 270 273 274 275 275 276 277 277 276 275 275 277 280 282 286 291 295 297
220 219 222 223 217 217 224 223 219 219 220 220 222 227 236 241 230 234 248 249 233 219 214 217 218 225 233 236 237 233 224 219 204 193 202 205 199 206 215 219 220 220 219 225 232 232 228 226 222 212 198 186 181 179 179 182 185 189 193 196 198 199 201 206 209 213 216 219 225 231 238 244 249 253 259 265 269 268 265 265 268 273 275 275 274 274 273 274 274 274 274 277 279 282 285 288 289